Time,TemperatureF,DewpointF,PressureIn,WindDirection,WindDirectionDegrees,WindSpeedMPH,WindSpeedGustMPH,Humidity,HourlyPrecipIn,Conditions,Clouds,dailyrainin,SoftwareType,DateUTC
2013-11-17 00:03:00,25.8,24.0,29.66,ESE,104,7.0,14.0,93,0.00,,,0.00,weatherlink.com 1.10,2013-11-17 07:03:00,
2013-11-17 00:18:00,26.0,24.0,29.65,SSE,165,1.0,14.0,92,0.00,,,0.00,weatherlink.com 1.10,2013-11-17 07:18:00,
2013-11-17 00:33:00,25.9,24.0,29.66,ESE,110,6.0,15.0,93,0.00,,,0.00,weatherlink.com 1.10,2013-11-17 07:33:00,
2013-11-17 00:48:00,25.7,24.0,29.68,SE,129,2.0,8.0,93,0.00,,,0.00,weatherlink.com 1.10,2013-11-17 07:48:00,
2013-11-17 01:03:00,25.7,24.0,29.68,SE,141,2.0,15.0,93,0.00,,,0.00,weatherlink.com 1.10,2013-11-17 08:03:00,
2013-11-17 01:18:00,25.6,24.0,29.68,SE,142,3.0,11.0,92,0.00,,,0.00,weatherlink.com 1.10,2013-11-17 08:18:00,
2013-11-17 01:33:00,25.6,23.0,29.69,ESE,113,11.0,15.0,91,0.00,,,0.00,weatherlink.com 1.10,2013-11-17 08:33:00,
2013-11-17 01:48:00,25.7,24.0,29.69,SE,134,2.0,13.0,91,0.00,,,0.00,weatherlink.com 1.10,2013-11-17 08:48:00,
2013-11-17 02:03:00,25.8,24.0,29.71,SE,127,2.0,13.0,91,0.00,,,0.00,weatherlink.com 1.10,2013-11-17 09:03:00,
2013-11-17 02:18:00,25.7,24.0,29.71,ESE,120,8.0,14.0,91,0.00,,,0.00,weatherlink.com 1.10,2013-11-17 09:18:00,
2013-11-17 02:33:00,25.7,23.0,29.73,ESE,115,8.0,14.0,90,0.00,,,0.00,weatherlink.com 1.10,2013-11-17 09:33:00,
2013-11-17 02:48:00,25.7,23.0,29.73,ESE,105,8.0,12.0,90,0.00,,,0.00,weatherlink.com 1.10,2013-11-17 09:48:00,
2013-11-17 03:03:00,25.7,24.0,29.75,East,85,13.0,15.0,91,0.00,,,0.00,weatherlink.com 1.10,2013-11-17 10:03:00,
2013-11-17 03:18:00,25.9,23.0,29.76,ESE,108,4.0,16.0,90,0.00,,,0.00,weatherlink.com 1.10,2013-11-17 10:18:00,
2013-11-17 03:33:00,25.8,23.0,29.79,East,88,6.0,12.0,90,0.00,,,0.00,weatherlink.com 1.10,2013-11-17 10:33:00,
2013-11-17 03:48:00,25.9,23.0,29.80,ESE,105,10.0,15.0,89,0.00,,,0.00,weatherlink.com 1.10,2013-11-17 10:48:00,
2013-11-17 04:03:00,25.9,23.0,29.82,SE,138,4.0,13.0,88,0.00,,,0.00,weatherlink.com 1.10,2013-11-17 11:03:00,
2013-11-17 04:18:00,25.8,23.0,29.84,ESE,102,9.0,15.0,87,0.00,,,0.00,weatherlink.com 1.10,2013-11-17 11:18:00,
2013-11-17 04:33:00,25.7,22.0,29.84,ESE,107,9.0,17.0,85,0.00,,,0.00,weatherlink.com 1.10,2013-11-17 11:33:00,
2013-11-17 04:48:00,25.7,21.0,29.85,ESE,115,10.0,16.0,82,0.00,,,0.00,weatherlink.com 1.10,2013-11-17 11:48:00,
2013-11-17 05:03:00,25.8,20.0,29.88,ESE,108,4.0,16.0,80,0.00,,,0.00,weatherlink.com 1.10,2013-11-17 12:03:00,
2013-11-17 05:18:00,25.8,20.0,29.89,East,100,6.0,16.0,79,0.00,,,0.00,weatherlink.com 1.10,2013-11-17 12:18:00,
2013-11-17 05:33:00,25.9,20.0,29.90,SE,133,2.0,16.0,77,0.00,,,0.00,weatherlink.com 1.10,2013-11-17 12:33:00,
2013-11-17 05:49:00,25.9,18.0,29.92,NNW,329,4.0,24.0,71,0.00,,,0.00,weatherlink.com 1.10,2013-11-17 12:49:00,
2013-11-17 06:04:00,26.2,16.0,29.94,ESE,108,6.0,19.0,65,0.00,,,0.00,weatherlink.com 1.10,2013-11-17 13:04:00,
2013-11-17 06:19:00,26.1,16.0,29.96,ESE,110,3.0,12.0,66,0.00,,,0.00,weatherlink.com 1.10,2013-11-17 13:19:00,
2013-11-17 06:34:00,25.4,16.0,29.96,SE,141,0.0,6.0,68,0.00,,,0.00,weatherlink.com 1.10,2013-11-17 13:34:00,
2013-11-17 06:49:00,24.2,18.0,29.98,SE,125,3.0,7.0,76,0.00,,,0.00,weatherlink.com 1.10,2013-11-17 13:49:00,
2013-11-17 07:04:00,23.7,18.0,29.99,SE,144,0.0,5.0,78,0.00,,,0.00,weatherlink.com 1.10,2013-11-17 14:04:00,
2013-11-17 07:19:00,24.1,18.0,30.01,SE,127,0.0,6.0,76,0.00,,,0.00,weatherlink.com 1.10,2013-11-17 14:19:00,
2013-11-17 07:34:00,23.0,19.0,30.02,SE,137,1.0,1.0,83,0.00,,,0.00,weatherlink.com 1.10,2013-11-17 14:34:00,
2013-11-17 07:49:00,22.8,19.0,30.04,SSE,153,0.0,0.0,85,0.00,,,0.00,weatherlink.com 1.10,2013-11-17 14:49:00,
2013-11-17 08:04:00,23.2,20.0,30.05,SSE,160,0.0,1.0,87,0.00,,,0.00,weatherlink.com 1.10,2013-11-17 15:04:00,
2013-11-17 08:19:00,23.7,21.0,30.07,SSE,164,0.0,1.0,88,0.00,,,0.00,weatherlink.com 1.10,2013-11-17 15:19:00,
2013-11-17 08:34:00,24.6,22.0,30.08,SSE,155,0.0,1.0,88,0.00,,,0.00,weatherlink.com 1.10,2013-11-17 15:34:00,
2013-11-17 08:49:00,26.7,22.0,30.08,SSE,156,0.0,0.0,83,0.00,,,0.00,weatherlink.com 1.10,2013-11-17 15:49:00,
2013-11-17 09:04:00,28.5,23.0,30.09,SE,138,0.0,2.0,81,0.00,,,0.00,weatherlink.com 1.10,2013-11-17 16:04:00,
2013-11-17 09:19:00,30.7,20.0,30.10,SE,138,0.0,0.0,65,0.00,,,0.00,weatherlink.com 1.10,2013-11-17 16:19:00,
2013-11-17 09:34:00,32.3,24.0,30.11,SE,135,0.0,1.0,72,0.00,,,0.00,weatherlink.com 1.10,2013-11-17 16:34:00,
2013-11-17 09:49:00,31.4,24.0,30.12,SSE,164,0.0,2.0,73,0.00,,,0.00,weatherlink.com 1.10,2013-11-17 16:49:00,
2013-11-17 10:04:00,32.3,25.0,30.13,SSE,152,0.0,1.0,73,0.00,,,0.00,weatherlink.com 1.10,2013-11-17 17:04:00,
2013-11-17 10:19:00,32.8,23.0,30.13,SE,136,0.0,5.0,66,0.00,,,0.00,weatherlink.com 1.10,2013-11-17 17:19:00,
2013-11-17 10:34:00,31.8,21.0,30.13,SE,129,2.0,10.0,64,0.00,,,0.00,weatherlink.com 1.10,2013-11-17 17:34:00,
2013-11-17 10:49:00,33.0,20.0,30.13,SE,143,1.0,6.0,60,0.00,,,0.00,weatherlink.com 1.10,2013-11-17 17:49:00,
2013-11-17 11:04:00,34.1,19.0,30.13,SSE,164,5.0,13.0,55,0.00,,,0.00,weatherlink.com 1.10,2013-11-17 18:04:00,
2013-11-17 11:20:00,33.9,21.0,30.12,ESE,115,2.0,9.0,60,0.00,,,0.00,weatherlink.com 1.10,2013-11-17 18:20:00,
2013-11-17 11:35:00,35.0,21.0,30.12,East,96,6.0,7.0,57,0.00,,,0.00,weatherlink.com 1.10,2013-11-17 18:35:00,
2013-11-17 11:50:00,32.1,19.0,30.12,SE,146,3.0,11.0,59,0.00,,,0.00,weatherlink.com 1.10,2013-11-17 18:50:00,
2013-11-17 12:05:00,31.7,19.0,30.11,ESE,122,1.0,9.0,60,0.00,,,0.00,weatherlink.com 1.10,2013-11-17 19:05:00,
2013-11-17 12:20:00,32.6,19.0,30.11,SE,132,4.0,10.0,57,0.00,,,0.00,weatherlink.com 1.10,2013-11-17 19:20:00,
2013-11-17 12:35:00,32.9,20.0,30.11,SE,129,5.0,12.0,60,0.01,,,0.01,weatherlink.com 1.10,2013-11-17 19:35:00,
2013-11-17 12:50:00,32.1,21.0,30.11,ESE,117,7.0,11.0,63,0.01,,,0.01,weatherlink.com 1.10,2013-11-17 19:50:00,
2013-11-17 13:05:00,33.6,23.0,30.11,SE,138,0.0,11.0,64,0.01,,,0.01,weatherlink.com 1.10,2013-11-17 20:05:00,
2013-11-17 13:20:00,34.1,22.0,30.10,SE,125,5.0,11.0,61,0.01,,,0.01,weatherlink.com 1.10,2013-11-17 20:20:00,
2013-11-17 13:35:00,33.9,22.0,30.10,ESE,113,8.0,11.0,61,0.01,,,0.02,weatherlink.com 1.10,2013-11-17 20:35:00,
2013-11-17 13:50:00,34.5,21.0,30.11,ESE,112,6.0,11.0,59,0.01,,,0.02,weatherlink.com 1.10,2013-11-17 20:50:00,
2013-11-17 14:05:00,34.5,21.0,30.11,ESE,117,7.0,9.0,58,0.01,,,0.02,weatherlink.com 1.10,2013-11-17 21:05:00,
2013-11-17 14:20:00,34.4,21.0,30.11,ESE,112,6.0,14.0,59,0.01,,,0.02,weatherlink.com 1.10,2013-11-17 21:20:00,
2013-11-17 14:35:00,34.3,21.0,30.11,SE,126,2.0,11.0,59,0.00,,,0.02,weatherlink.com 1.10,2013-11-17 21:35:00,
2013-11-17 14:50:00,34.4,21.0,30.12,ESE,108,6.0,8.0,58,0.00,,,0.02,weatherlink.com 1.10,2013-11-17 21:50:00,
2013-11-17 15:05:00,34.2,21.0,30.13,SE,136,1.0,7.0,60,0.00,,,0.02,weatherlink.com 1.10,2013-11-17 22:05:00,
2013-11-17 15:20:00,34.2,21.0,30.14,SE,124,7.0,10.0,60,0.00,,,0.02,weatherlink.com 1.10,2013-11-17 22:20:00,
2013-11-17 15:35:00,33.8,21.0,30.15,SE,132,1.0,9.0,61,0.00,,,0.02,weatherlink.com 1.10,2013-11-17 22:35:00,
2013-11-17 15:50:00,33.8,20.0,30.16,ESE,103,4.0,13.0,58,0.00,,,0.02,weatherlink.com 1.10,2013-11-17 22:50:00,
2013-11-17 16:05:00,33.0,21.0,30.16,ESE,105,7.0,12.0,61,0.00,,,0.02,weatherlink.com 1.10,2013-11-17 23:05:00,
2013-11-17 16:20:00,32.0,20.0,30.17,ESE,122,2.0,10.0,62,0.00,,,0.02,weatherlink.com 1.10,2013-11-17 23:20:00,
2013-11-17 16:35:00,30.5,21.0,30.18,SE,136,0.0,6.0,69,0.00,,,0.02,weatherlink.com 1.10,2013-11-17 23:35:00,
2013-11-17 16:50:00,29.1,21.0,30.18,SSE,149,0.0,2.0,72,0.00,,,0.02,weatherlink.com 1.10,2013-11-17 23:50:00,
2013-11-17 17:05:00,27.3,21.0,30.20,SE,146,0.0,1.0,78,0.00,,,0.02,weatherlink.com 1.10,2013-11-18 00:05:00,
2013-11-17 17:20:00,25.6,21.0,30.20,South,170,0.0,2.0,83,0.00,,,0.02,weatherlink.com 1.10,2013-11-18 00:20:00,
2013-11-17 17:35:00,24.8,21.0,30.20,South,181,1.0,2.0,85,0.00,,,0.02,weatherlink.com 1.10,2013-11-18 00:35:00,
2013-11-17 17:50:00,24.0,20.0,30.21,SSE,165,0.0,2.0,84,0.00,,,0.02,weatherlink.com 1.10,2013-11-18 00:50:00,
2013-11-17 18:05:00,22.3,19.0,30.22,South,176,0.0,2.0,86,0.00,,,0.02,weatherlink.com 1.10,2013-11-18 01:05:00,
2013-11-17 18:20:00,21.1,18.0,30.23,South,178,1.0,2.0,86,0.00,,,0.02,weatherlink.com 1.10,2013-11-18 01:20:00,
2013-11-17 18:35:00,20.1,17.0,30.23,South,175,0.0,2.0,88,0.00,,,0.02,weatherlink.com 1.10,2013-11-18 01:35:00,
2013-11-17 18:50:00,19.1,16.0,30.23,South,172,0.0,1.0,88,0.00,,,0.02,weatherlink.com 1.10,2013-11-18 01:50:00,
2013-11-17 19:05:00,18.5,16.0,30.24,South,180,0.0,2.0,89,0.00,,,0.02,weatherlink.com 1.10,2013-11-18 02:05:00,
2013-11-17 19:21:00,17.7,15.0,30.25,South,175,1.0,1.0,89,0.00,,,0.02,weatherlink.com 1.10,2013-11-18 02:21:00,
2013-11-17 19:36:00,17.1,14.0,30.26,South,174,0.0,1.0,89,0.00,,,0.02,weatherlink.com 1.10,2013-11-18 02:36:00,
2013-11-17 19:51:00,16.3,14.0,30.26,South,174,0.0,1.0,89,0.00,,,0.02,weatherlink.com 1.10,2013-11-18 02:51:00,
2013-11-17 20:06:00,15.6,13.0,30.27,South,174,1.0,1.0,90,0.00,,,0.02,weatherlink.com 1.10,2013-11-18 03:06:00,
2013-11-17 20:21:00,15.4,13.0,30.27,South,174,0.0,1.0,90,0.00,,,0.02,weatherlink.com 1.10,2013-11-18 03:21:00,
2013-11-17 20:36:00,15.1,13.0,30.28,South,176,0.0,1.0,89,0.00,,,0.02,weatherlink.com 1.10,2013-11-18 03:36:00,
2013-11-17 20:51:00,14.3,12.0,30.29,South,176,1.0,1.0,89,0.00,,,0.02,weatherlink.com 1.10,2013-11-18 03:51:00,
2013-11-17 21:06:00,13.5,11.0,30.29,South,176,0.0,1.0,89,0.00,,,0.02,weatherlink.com 1.10,2013-11-18 04:06:00,
2013-11-17 21:21:00,12.8,10.0,30.30,SSE,168,0.0,1.0,89,0.00,,,0.02,weatherlink.com 1.10,2013-11-18 04:21:00,
2013-11-17 21:36:00,12.5,10.0,30.31,South,174,0.0,1.0,89,0.00,,,0.02,weatherlink.com 1.10,2013-11-18 04:36:00,
2013-11-17 21:51:00,12.0,9.0,30.32,South,174,0.0,1.0,89,0.00,,,0.02,weatherlink.com 1.10,2013-11-18 04:51:00,
2013-11-17 22:06:00,11.3,9.0,30.33,SSE,167,0.0,1.0,89,0.00,,,0.02,weatherlink.com 1.10,2013-11-18 05:06:00,
2013-11-17 22:21:00,10.6,8.0,30.34,SSE,167,0.0,1.0,90,0.00,,,0.02,weatherlink.com 1.10,2013-11-18 05:21:00,
2013-11-17 22:36:00,10.4,8.0,30.35,South,174,0.0,1.0,89,0.00,,,0.02,weatherlink.com 1.10,2013-11-18 05:36:00,
2013-11-17 22:51:00,10.0,7.0,30.36,South,174,0.0,0.0,89,0.00,,,0.02,weatherlink.com 1.10,2013-11-18 05:51:00,
2013-11-17 23:06:00,9.1,6.0,30.36,South,170,0.0,1.0,88,0.00,,,0.02,weatherlink.com 1.10,2013-11-18 06:06:00,
2013-11-17 23:21:00,8.6,6.0,30.37,South,170,0.0,1.0,89,0.00,,,0.02,weatherlink.com 1.10,2013-11-18 06:21:00,
2013-11-17 23:36:00,8.3,6.0,30.37,South,176,0.0,1.0,88,0.00,,,0.02,weatherlink.com 1.10,2013-11-18 06:36:00,
2013-11-17 23:51:00,7.8,5.0,30.37,South,176,0.0,1.0,88,0.00,,,0.02,weatherlink.com 1.10,2013-11-18 06:51:00,